Location: South Cushing
(43.9686°N, 69.2945°W)
Time: 01:22:23
(UTC-04:00)

Tiangong 2 - Pass Details

Date: 20 July 2018
Orbit: 384 x 393 km, 42.8° (Epoch: 17 October)

Event Time Altitude Azimuth Distance (km) Brightness Sun altitude
Rises 21:30:32 0° 276° (W) 2,262 5.9 -11.9°
Reaches altitude 10° 21:32:40 10° 269° (W) 1,405 4.6 -12.1°
Maximum altitude 21:35:41 42° 197° (SSW) 559 1.6 -12.5°
Enters shadow 21:37:08 24° 140° (SE) 833 2.1 -12.7°
